FENGYUN 1C DEB

Satellite information

Favourite Embed

Satellite Type and Status

DEBRISIN ORBIT

Key statistics

Satellite FENGYUN 1C DEB at a glance.

Uptime

9715

Days in orbit

Revolutions

≈ 14.6

Per day

Orbit

SSO

Sun Synchronous Orbit

Inclination

99.4

Latest

Satellite identification and parameters

Extended collection of information and parameters for FENGYUN 1C DEB.

Object identification

Identified? True

Debris? True

Object name: FENGYUN 1C DEB

International designator: 1999-025ETP

Object number (NORAD): 38722

Object ID (CCSDS): 38722

Country: PEOPLES REPUBLIC OF CHINA (PRC)

Current information (Y/N): Y

RCS size: SMALL

Orbital parameters

Period: 98.742 minutes

Inclination: 99.3522 deg

SMA: 7076.646 km

Apoapsis: 802.692 km

Periapsis: 594.331 km

RAAN: 83.7029 deg

Eccentricy: 0.01472173

Argument of periapsis: 98.5109 deg

Mean anomaly: 263.2801 deg

Mean motion: 14.58349213 rev/day

Mean motion (dot): 0.0002709 rev/day2

B* drag term: 0.0050298284 1/REarth

Two-line elements (TLE)

Creation date: Dec. 11, 2025, 7:14 p.m.

Reference frame: TEME

Reference center: EARTH

Epoch: Dec. 11, 2025, 12:50 p.m. UTC

TLE line 0: 0 FENGYUN 1C DEB

TLE line 1: 1 38722U 99025ETP 25345.53517932 .00027090 00000-0 50298-2 0 9995

TLE line 2: 2 38722 99.3522 83.7029 0147217 98.5109 263.2801 14.58349213704460

Live tracking on map

Real-time ground track for satellite FENGYUN 1C DEB.

In-orbit conjunctions

A list of the most updated potential collisions computed for object FENGYUN 1C DEB.

Target Orbit TCA Probability of collision Miss distance Type
COSMOS 1503 LEO 2025-10-18 10:40:30 0.0001217064 705.0 (m) PAYLOAD
DMSP 5D-2 F8 DEB SSO 2024-11-10 19:03:32 0.0001324581 610.0 (m) DEBRIS

Associated space launch

Chinese polar orbiting meteorological satellite

FENGYUN 1C DEB was lifted into orbit during the mission ‘Long March 4B | Feng Yun 1C’, on board a Long March 4B space rocket.

The launch took place on May 10, 1999, 1:33 a.m. from Launch Complex 7.

For more information about the launch, click the button.

Launch to space Long March 4B | Feng Yun 1C
Long March 4B | Feng Yun 1C

Agency: N/A

Status: Launch Successful

Launch date: May 10, 1999, 1:33 a.m. UTC

Rocket: Long March 4B

Launch pad: Launch Complex 7

Location: Taiyuan Satellite Launch Center, People's Republic of China

...

Latest news about this satellite

There are no fresh news available about this satellite. Check back as we update our databases every day.


Newsletter sign-up

Weekly statistics, charts and insights to help you stay on top of the space industry.